Location: Kra?nica
(53.4833°N, 14.6167°E)
Time: 20:22:33
(UTC+00:00)

COBE Rocket - Pass Details

Date: 23 May 2024
Orbit: 678 x 776 km, 97.1° (Epoch: 20 June)

Event Time Altitude Azimuth Distance (km) Brightness Sun altitude
Rises 00:37:05 0° 15° (NNE) 3,122 9.1 -12.9°
Reaches altitude 10° 00:39:22 10° 19° (NNE) 2,212 7.9 -12.7°
Maximum altitude 00:44:11 61° 100° (E) 831 4.3 -12.4°
Enters shadow 00:48:29 14° 179° (S) 2,014 5.6 -12.1°
